This demonstration page uses our WeatherBlox Daily Observations layout. Learn more.

Left ArrowRight Arrow

41.86663, -103.66717

Hourly Observations for June 29, 2021

Temp ( °F °C ) Dew Point ( °F °C ) Humidity (%) Winds ( mph kmh ) Pressure ( in mb ) Visibility ( mi km ) Precip ( " mm )
12:53 am 00:53 Clear 54 12.2 49 9.4 83 83 N N/A 30.17 1022 10 16 N/A
1:53 am 01:53 Clear 53 11.7 48 8.9 83 83 E 6 9 30.16 1021 10 16 N/A
2:53 am 02:53 Clear 50 10 47 8.3 89 89 WNW 6 9 30.17 1022 10 16 N/A
3:53 am 03:53 Clear 52 11.1 48 8.9 86 86 N N/A 30.16 1021 10 16 N/A
4:53 am 04:53 Clear 50 10 46 7.8 86 86 N N/A 30.16 1021 10 16 N/A
5:53 am 05:53 Sunny 50 10 46 7.8 86 86 ENE 3 6 30.19 1022 8 13 N/A
6:53 am 06:53 Sunny 56 13.3 50 10 81 81 N N/A 30.19 1022 10 16 N/A
7:53 am 07:53 Sunny 60 15.6 52 11.1 75 75 SE 5 7 30.19 1022 10 16 N/A
8:53 am 08:53 Sunny 67 19.4 52 11.1 59 59 ESE 5 7 30.19 1022 10 16 N/A
9:53 am 09:53 Sunny 71 21.7 49 9.4 46 46 VRB 3 6 30.17 1022 10 16 N/A
10:53 am 10:53 Sunny 75 23.9 48 8.9 39 39 ESE 7 11 30.16 1021 10 16 N/A
11:53 am 11:53 Sunny 78 25.6 44 6.7 30 30 VRB 7 11 30.15 1021 10 16 N/A
12:53 pm 12:53 Sunny 78 25.6 42 5.6 28 28 undefined N/A 30.14 1021 10 16 N/A
1:53 pm 13:53 Sunny 81 27.2 43 6.1 26 26 VRB 3 6 30.12 1020 10 16 N/A
2:53 pm 14:53 Sunny 83 28.3 43 6.1 24 24 ENE 7 11 30.11 1020 10 16 N/A
3:53 pm 15:53 Sunny 83 28.3 43 6.1 24 24 ENE 8 13 30.09 1019 10 16 N/A
4:53 pm 16:53 Sunny 82 27.8 42 5.6 24 24 ESE 7 11 30.09 1019 10 16 N/A
5:53 pm 17:53 Sunny 82 27.8 42 5.6 24 24 ESE 12 19 30.09 1019 10 16 N/A
6:53 pm 18:53 Sunny 80 26.7 45 7.2 29 29 SE 14 22 30.08 1019 10 16 N/A
7:53 pm 19:53 Sunny 77 25 48 8.9 36 36 ESE 13 20 30.09 1019 10 16 N/A
8:53 pm 20:53 Clear 71 21.7 50 10 47 47 ESE 8 13 30.09 1019 7 11 N/A
9:53 pm 21:53 Clear 67 19.4 51 10.6 57 57 ESE 8 13 30.11 1020 10 16 N/A
10:53 pm 22:53 Clear 63 17.2 52 11.1 68 68 E 7 11 30.11 1020 10 16 N/A
11:53 pm 23:53 Clear 63 17.2 52 11.1 68 68 E 8 13 30.10 1019 10 16 N/A

Powered by AerisWeather